Regional Weather Roundup
Issued by NWS

Home | Current Version | Previous Version | Text Only | Print | Product List | Glossary Off
Versions: 1 2 3 4 5 6 7 8 9 10 11 12 13 14 15 16 17 18 19 20 21 22 23 24 25 26 27 28

000
ASUS45 KGTF 040810
RWRMT
MONTANA HOURLY WEATHER ROUNDUP
NATIONAL WEATHER SERVICE GREAT FALLS MT
200 AM MDT MON MAY 04 2015

NOTE: "FAIR" INDICATES FEW OR NO CLOUDS BELOW 12000 FEET WITH NO
SIGNIFICANT WEATHER AND/OR OBSTRUCTIONS TO VISIBILITY.

MTZ001>007-043-040900-
WEST OF THE DIVIDE

CITY           SKY/WX    TMP DP  RH WIND       PRES   REMARKS
KALISPELL      SUNNY     33  27  78 CALM      29.92S
MISSOULA       CLEAR     38  23  55 CALM      29.93S
BUTTE          CLEAR     40  26  57 CALM      29.98S
DEER LODGE       N/A     37  25  60 CALM      29.99F
EUREKA           N/A     36  25  64 CALM      29.95S
HAMILTON         N/A     41  27  56 S6        29.92S
LIBBY            N/A     36  27  69 CALM      29.94S
$$

MTZ008-052>055-040900-
SOUTHWEST MONTANA

CITY           SKY/WX    TMP DP  RH WIND       PRES   REMARKS
BOZEMAN        CLEAR     40  31  70 N5        29.97R
DILLON         CLEAR     46  29  51 SW3       29.96R
$$

MTZ009-010-012-014-046-048-049-054-040900-
EAST SLOPES AND CENTRAL MONTANA

CITY           SKY/WX    TMP DP  RH WIND       PRES   REMARKS
CUT BANK       CLEAR     38  24  57 CALM      29.98S
GREAT FALLS    CLEAR     43  32  65 E5        29.95S
MALMSTROM AFB  CLEAR     44  34  66 S2        29.95F
HELENA         CLEAR     46  28  49 CALM      29.95S
$$

MTZ011-013-016-021-045-047-050-051-040900-
NORTH CENTRAL MONTANA

CITY           SKY/WX    TMP DP  RH WIND       PRES   REMARKS
HAVRE          CLEAR     45  28  51 E16       29.99F
LEWISTOWN      CLEAR     48  32  53 E9        30.00F
CHINOOK          N/A     39  28  65 E9        30.03F
FORT BENTON      N/A     50  28  43 NE8       29.97R
$$

MTZ017>020-022>042-056>058-061-062-040900-
EASTERN PLAINS

CITY           SKY/WX    TMP DP  RH WIND       PRES   REMARKS
BAKER          PTCLDY    37  29  72 SE7       30.11S WCI  32
BILLINGS       MOCLDY    48  35  60 N6        30.00S
GLASGOW        CLEAR     42  24  49 E13       30.07F
JORDAN           N/A     40  27  59 CALM      30.06S
LIVINGSTON     CLEAR     45  34  65 SE9       30.01S
MILES CITY     MOCLDY    49  29  46 E8        30.06S
SIDNEY         CLEAR     37  25  60 CALM      30.12S
WOLF POINT     CLEAR     36  25  64 E5        30.10F
BIG TIMBER       N/A     46  34  61 N6        30.02F
FORSYTH          N/A     46  32  57 E6        30.03F
PLENTYWOOD       N/A     43  19  39 E3        30.11S
POPLAR           N/A     41  25  52 N3        30.11F
$$

REGIONAL REPORTS...DAKOTAS

CITY           SKY/WX    TMP DP  RH WIND       PRES   REMARKS
WILLISTON      FLURRIES  32  23  69 N3        30.12F
MINOT          CLEAR     38  26  62 SW6       30.12S
DICKINSON      PTCLDY    39  26  59 CALM      30.11S
BEACH          FAIR      36  28  75 SE5       30.12F
CROSBY         FAIR      30  28  93 CALM      30.13S
WATFORD CITY   FAIR      34  27  75 CALM      30.11F
BISMARCK       PTCLDY    41  27  57 CALM      30.14R
GRAND FORKS    CLEAR     38  29  70 N3        30.10R
FARGO          CLEAR     41  26  55 N9        30.08R
BUFFALO SD       N/A     44  34  67 E10       30.03F
RAPID CITY     CLOUDY    48  35  60 W3        30.11R
$$

REGIONAL REPORTS...WYOMING/IDAHO/WASHINGTON

CITY           SKY/WX    TMP DP  RH WIND       PRES   REMARKS
GILLETTE       RAIN      49  45  86 SE15      30.06F
SHERIDAN       PTCLDY    51  42  71 SE12      30.00F
BUFFALO WY     CLOUDY    50  43  77 S12       30.07S
CODY           MOCLDY    46  39  76 CALM      30.02S
YELLOWSTONE LA   N/A     29  27  92 CALM      30.12S
IDAHO FALLS    PTCLDY    43  40  89 NW3       29.96S
SALMON         PTCLDY    43  34  70 CALM      29.92S
BOISE          CLEAR     55  30  38 S6        29.84R
SPOKANE        CLEAR     45  29  53 SW3       29.88S
$$

REGIONAL REPORTS...ALBERTA

CITY           SKY/WX    TMP DP  RH WIND       PRES   REMARKS
EDMONTON       MOCLDY    36  32  87 E3        30.02S
CALGARY        CLEAR     37  27  65 S12       29.98F WCI  30
LETHBRIDGE     CLEAR     34  27  75 CALM      29.97F
MEDICINE HAT   CLEAR     39  28  65 NE7       30.01F
$$

REGIONAL REPORTS...SASKATCHEWAN

CITY           SKY/WX    TMP DP  RH WIND       PRES   REMARKS
SWIFT CURRENT  CLEAR     34  28  80 S10       30.09S WCI  26
REGINA         PTCLDY    34  30  86 S2        30.13R
SASKATOON      CLEAR     34  30  86 SW3       30.11R
$$



USA.gov is the U.S. government's official web portal to all federal, state and local government web resources and services.